Hauptseite
METAR-TAF:

METAR-TAF

Flughäfen :

Meierwik

Glücksburg, Deutschland

Breite: 54-50N, Länge: 009-30E, Höhe: 27 m

Beobachtung

Neuester Wetterbericht von vor 46 Minuten, um 06:20 UTC
Wind 22 kt aus West
Temperatur 8°C
Luftfeuchtigkeit 81%
Luftdruck 1015 hPa
Sichtweite 10 km oder mehr

METAR: ETGG 140620Z AUTO 28022KT 9999 // ////// 08/05 Q1015 ///

Zeit: 09:06 (07:06 UTC)


TAF: fehlend

Wetterbeobachtungen und Prognosen von mehr als 4000 Flughäfen (METAR und TAF Bericht).

Die verfügbaren Stationen werden durch gelbe und rote Markierungen auf der Karte dargestellt.

Führen Sie die Maus auf sie, um den Namen der Station zu sehen.

Darauf klicken, um die Beobachtung von Wetterbeobachtungen und Prognosen zu sehen.

Um die Karte zu ändern : klicken Sie auf den grünen Tasten mit einem schwarzen Kreuz Zum Vergrößern, auf den grünen Button mit einem Gedankenstrich zu verkleinern, oder auf die grünen Pfeile für benachbarte Karten.


METAR-TAF: